Regional Weather Roundup
Issued by NWS

Home | Current Version | Previous Version | Text Only | Print | Product List | Glossary Off
Versions: 1 2 3 4 5 6 7 8 9 10 11 12 13 14 15 16 17 18 19 20 21 22 23 24 25 26 27 28 29 30 31 32 33 34 35 36 37 38 39 40 41 42 43 44 45 46 47 48 49 50

000
ASUS45 KTFX 290319
RWRMT
MONTANA HOURLY WEATHER ROUNDUP
NATIONAL WEATHER SERVICE GREAT FALLS MT
819 PM MST WED JAN 28 2015

NOTE: "FAIR" INDICATES FEW OR NO CLOUDS BELOW 12000 FEET WITH NO
SIGNIFICANT WEATHER AND/OR OBSTRUCTIONS TO VISIBILITY.

* THESE STATIONS ARE NOT UNDER NWS QUALITY CONTROL. THEY DO NOT
   REPORT WEATHER SUCH AS PRECIPITATION OR FOG.

MTZ001>007-043-290400-
WEST OF THE DIVIDE
CITY           SKY/WX    TMP DP  RH WIND       PRES   REMARKS
KALISPELL      FOG       25  25 100 CALM      30.38R
MISSOULA       CLEAR     36  27  70 NW6       30.39R WCI  31
BUTTE          CLEAR     28  21  75 E5        30.36R WCI  22
MULLAN PASS    CLEAR     27  25  92 SW3       30.34S
* ANACONDA     CLEAR     30  25  82 SW5        N/A   WCI  25
* ESSEX        N/A       28  26  92 N/A        N/A
* EUREKA APT   CLEAR     30  25  82 CALM      30.40R
* HAMILTON APT CLEAR     36  23  59 S6        30.38R WCI  31
* LIBBY APT    CLEAR     25  25 100 CALM      30.43R VSB 2 1/2
* LINCOLN      N/A       32  23  69 S3         N/A
* LOOKOUT PASS N/A       31  27  85 NE1        N/A
* POLSON       N/A       33  26  75 SE1        N/A
* RONAN APT    CLEAR     36  36 100 N/A        N/A
* SEELEY LAKE  N/A       27  21  78 NE1        N/A
* THOMP F APT  CLEAR     30  29  96 S3         N/A
$$

MTZ008-052>055-290400-
SOUTHWEST MONTANA
CITY           SKY/WX    TMP DP  RH WIND       PRES   REMARKS
BOZEMAN        MOCLDY    34  25  70 NW7       30.36R WCI  28
DILLON         CLEAR     32  21  64 E8        30.33R WCI  25
* W YELLOWSTON CLEAR     31  29  92 SW2        N/A
* THREE FORKS  CLEAR     32  28  85 N/A        N/A
* BOULDER HILL N/A       31  15  51 SW1        N/A
* MONIDA PASS  N/A       27  27 100 SE8        N/A   WCI  19
* RAYNOLDS PAS N/A       30  14  51 S12        N/A   WCI  20
* WHITEHALL    N/A       37  21  52 NE4G9      N/A
* WISE RIVER   N/A       30  19  64 S4         N/A
$$

MTZ009>010-012-014-046-048-049-054-290400-
EAST SLOPES AND CENTRAL MONTANA
CITY           SKY/WX    TMP DP  RH WIND       PRES   REMARKS
CUT BANK       CLEAR     30  27  89 SE7       30.34R WCI  23
GREAT FALLS    MOCLDY    32  30  92 CALM      30.35R
HELENA         MOCLDY    39  23  53 SW6       30.36R WCI  35
MALMSTROM AFB  PTCLDY    32  30  92 E3        30.37R
* CONRAD       CLEAR     27  23  85 CALM       N/A
* DEARBORN     N/A       42  31  65 N/A        N/A
* EAST GLACIER N/A       31  22  69 W11        N/A   WCI  22
* MONARCH      N/A       32  23  69 S5         N/A   WCI  27
* PENDROY      N/A       28  28 100 SE3        N/A
* ROGERS PASS  N/A       29  25  85 NW1        N/A
* SWEET GRASS  N/A       30  30 100 SW7        N/A   WCI  23
* WHITE SULPH  N/A       34  26  73 SE3        N/A
$$

MTZ011-013-016-021-035-040-045-047-050-051-290400-
NORTH CENTRAL MONTANA
CITY           SKY/WX    TMP DP  RH WIND       PRES   REMARKS
HAVRE          FOG       27  25  92 S5        30.38R WCI  21
LEWISTOWN      PTCLDY    30  27  89 SW5       30.37R WCI  25
* N BAR RANCH  MOCLDY    30  25  82 NW7       30.36R WCI  23
* CHINOOK      CLEAR     28  27  96 SW3       30.38R VSB 3
* CHESTER      N/A       29  26  89 N/A        N/A
* DENTON       N/A       31  30  96 SE8        N/A   WCI  24
* GEYSER       N/A       26  25  96 SE1        N/A
* JUDITH GAP   N/A       30  30 100 N15        N/A   WCI  19
* LOMA         N/A       31  30  96 NE1        N/A
$$

MTZ017>020-022>027-061-062-290400-
NORTHEAST MONTANA
CITY           SKY/WX    TMP DP  RH WIND       PRES   REMARKS
GLASGOW        CLEAR     32  27  82 NW13      30.32R WCI  22
GLENDIVE       CLOUDY    34  27  76 W16       30.31R WCI  24
JORDAN         CLEAR     28  25  89 W7        30.34R WCI  21
SIDNEY         CLOUDY    36  28  73 NW9G16    30.30R WCI  29
WOLF POINT     CLOUDY    37  27  67 NW14      30.32R WCI  28
* BEAVER HILL  N/A       32  27  82 NW19G24    N/A   WCI  20
* CIRCLE       N/A       32  30  92 N/A        N/A
* LINDSAY DVD  N/A       31  29  92 W16        N/A   WCI  20
* NAVAJO       N/A       31  24  75 NW22G34    N/A   WCI  18
* PLENTYWOOD A CLEAR     32  27  82 NW22G29   30.23R WCI  19
* POPLAR APT   PTCLDY    36  28  73 N/A       30.30R
* SACO         N/A       28  26  92 W10        N/A   WCI  19
$$

MTZ028>042-056>058-290400-
SOUTHCENTRAL AND SOUTHEAST MONTANA
CITY           SKY/WX    TMP DP  RH WIND       PRES   REMARKS
BAKER          CLOUDY    32  28  85 NW14G24   30.29R WCI  22
BILLINGS       MOCLDY    41  27  58 CALM      30.36R
LIVINGSTON     CLOUDY    39  28  65 E8        30.34R WCI  33
MILES CITY     CLEAR     30  27  89 NW10      30.33R WCI  21
* BIG TIMBER A PTCLDY    37  27  67 N5        30.37R WCI  33
* FORSYTH APT  PTCLDY    36  28  73 W7        30.37R WCI  30
* LAUREL APT   PTCLDY    37  21  52 N/A        N/A
* ROUNDUP APT  PTCLDY    39  25  57 N/A        N/A
* ALZADA       N/A       31  27  85 W10        N/A   WCI  22
* HYSHAM       N/A       34  27  76 N1         N/A
* LAME DEER    N/A       31  25  78 NW8        N/A   WCI  24
* REED POINT   N/A       40  25  55 SE1        N/A
* ROSCOE HILL  N/A       35  26  70 SE4        N/A
$$

REGIONAL REPORTS...DAKOTAS
CITY           SKY/WX    TMP DP  RH WIND       PRES   REMARKS
WILLISTON      CLOUDY    34  28  79 NW8       30.25R WCI  27
DICKINSON      CLOUDY    32  28  85 NW23G29   30.20R WCI  19
BEACH          CLOUDY    32  30  92 NW22      30.28R WCI  19
CROSBY         CLOUDY    28  28 100 NW20G31   30.23R WCI  15
TIOGA          CLOUDY    30  30 100 NW22G33   30.22R WCI  17
WATFORD CITY   N/A       32  30  92 NW14      30.22R WCI  22
BISMARCK       CLOUDY    32  27  82 NW22G32   30.16R WCI  19
GRAND FORKS    CLOUDY    27  25  92 N18       30.01R WCI  14
FARGO          CLOUDY    32  28  85 N28G33    29.97R WCI  18
BUFFALO SD     CLEAR     34  27  76 NW24      30.19R WCI  22
RAPID CITY     CLEAR     34  28  79 N25       30.22R WCI  21
$$

REGIONAL REPORTS...WYOMING/IDAHO/WASHINGTON
CITY           SKY/WX    TMP DP  RH WIND       PRES   REMARKS
GILLETTE       MOCLDY    30  28  92 N6        30.30R WCI  24
SHERIDAN       CLOUDY    39  30  70 NW13      30.34R WCI  31
CODY           CLOUDY    37  30  76 NW8       30.33R WCI  31
YELLOWSTONE LA PTCLDY    18  14  84 CALM      30.36R
SALMON         CLEAR     25  19  78 SE5       30.38R WCI  19
MULLAN PASS    CLEAR     27  25  92 SW3       30.34S
SAND POINT     FOG       34  34 100 CALM      30.44R VSB 3
SPOKANE        FOG       32  30  92 N3        30.40S VSB 1
$$

REGIONAL REPORTS...ALBERTA
CITY           SKY/WX    TMP DP  RH WIND       PRES   REMARKS
CALGARY        FAIR      30  23  75 S7        30.29F WCI  23
LETHBRIDGE     FAIR      27  25  92 SE9       30.33R WCI  18
MEDICINE HAT   N/A       30  28  92 SW2       30.37R
EDMONTON       CLOUDY    25  23  92 E6        30.35R WCI  18
WATERTON GATE  N/A       37  25  62 SW13G21    N/A   WCI  29
CARDSTON       N/A       34  25  70 SW8        N/A   WCI  27
MILK RIVER     N/A       27  25  92 S5         N/A   WCI  21
$$

REGIONAL REPORTS...SASKATCHEWAN
CITY           SKY/WX    TMP DP  RH WIND       PRES   REMARKS
SWIFT CURRENT  CLEAR     25  23  92 NW14      30.31R WCI  13
REGINA         CLOUDY    23  21  92 N16       30.27R WCI  10
VAL MARIE      N/A       28  27  96 NW10       N/A   WCI  19
ASSINIBOIA     N/A       28  25  89 NW15       N/A   WCI  16
CORONACH       N/A       30  23  75 NW23G33    N/A   WCI  17

$$



USA.gov is the U.S. government's official web portal to all federal, state and local government web resources and services.